Regional Weather Roundup
Issued by NWS Cleveland, OH

Home | Current Version | Previous Version | Graphics & Text | Print | Product List | Glossary On
Versions: 1 2 3 4 5 6 7 8 9 10 11 12 13 14 15 16 17 18 19 20 21 22 23 24 25 26 27 28 29 30 31 32 33 34 35 36 37 38 39 40 41 42 43 44 45 46 47 48 49 50
000
ASUS41 KCLE 260010
RWRCLE
OHIO REGIONAL WEATHER ROUNDUP
NATIONAL WEATHER SERVICE WILMINGTON, OH
700 PM EST SAT FEB 25 2017

NOTE: "FAIR" INDICATES FEW OR NO CLOUDS BELOW 12,000 FEET WITH NO
SIGNIFICANT WEATHER AND/OR OBSTRUCTIONS TO VISIBILITY.

OHZ001>008-015>018-024>027-034-035-043-044-260100-
   NORTHWEST OHIO

CITY           SKY/WX    TMP DP  RH WIND       PRES   REMARKS
DEFIANCE       CLOUDY    26  17  68 W7        29.94R WCI  18
FINDLAY        CLOUDY    28  16  60 W20G31    29.92R WCI  15
TOLEDO EXPRESS CLOUDY    26  17  68 W23G29    29.91R WCI  11
TOLEDO EXEC    LGT SNOW  27  20  75 W18       29.92R WCI  14
LIMA           FLURRIES  26  19  74 W25       29.94R WCI  11
$$

OHZ009>014-019>023-028>033-038-089-260100-
   NORTHEAST OHIO

CITY           SKY/WX    TMP DP  RH WIND       PRES   REMARKS
CLE-HOPKINS    FLURRIES  31  19  61 W24G35    29.88R WCI  17
CLE-LAKEFRONT  FLURRIES  32  22  66 W26G33    29.85R WCI  18
CUY CO. ARPT   FLURRIES  32  21  64 W17G29    29.84R WCI  21
LORAIN-ELYRIA  LGT SNOW  27  20  75 W20G26    29.89R WCI  13
ASHTABULA      FLURRIES  30  23  75 W18G30    29.80R WCI  18
AKRON-CANTON   FLURRIES  29  17  61 W22G37    29.84R WCI  15
WOOSTER        FLURRIES  27  18  69 W21G35    29.89R WCI  13
MANSFIELD      LGT SNOW  26  18  71 W15G23    29.89R WCI  14
YOUNGSTOWN     FLURRIES  30  19  63 W20G30    29.80R WCI  17
$$

OHZ042-051>053-060>062-070>072-077>081-260100-
  SOUTHWEST OHIO

CITY           SKY/WX    TMP DP  RH WIND       PRES   REMARKS
CINC-COVINGTON CLOUDY    31  18  58 W9        30.00R WCI  23
CINC-LUNKEN    CLOUDY    33  19  56 W14G22    30.04R WCI  23
HAMILTON       CLOUDY    32  20  61 W9        30.03R WCI  24
DAYTON         CLOUDY    28  19  69 W15       29.98R WCI  16
WRIGHT-PAT AFB CLOUDY    29  19  67 W8        29.99R WCI  21
DAYTON GENERAL CLOUDY    30  18  60 W12G20    29.98R WCI  20
WILMINGTON     CLOUDY    29  18  63 W15       29.98R WCI  18
$$

OHZ036-037-039>041-045>050-054>059-063>069-073>076-082>088-260100-
  CENTRAL AND SOUTHEAST OHIO

CITY           SKY/WX    TMP DP  RH WIND       PRES   REMARKS
COLUMBUS       FLURRIES  30  18  60 W18G30    29.96R WCI  18
OSU AIRPORT    FLURRIES  28  20  71 W18G29    29.96R WCI  15
BOLTON FIELD   CLOUDY    28  18  64 W15G22    29.97R WCI  17
RICKENBACK AFB CLOUDY    29  19  65 W18       29.98R WCI  17
NEWARK         CLOUDY    30  18  60 W22G31    29.95R WCI  17
MARION         CLOUDY    27  16  63 W18G28    29.94R WCI  14
LANCASTER      CLOUDY    31  19  61 W10G21    29.98R WCI  22
ZANESVILLE     CLOUDY    31  20  63 W13G23    29.93R WCI  21
NEW PHILLY     CLOUDY    30  20  66 W14G25    29.91R WCI  19
$$



USA.gov is the U.S. government's official web portal to all federal, state and local government web resources and services.